Vorticity
10 1 2 4 14 10 9 5 7 4 4 3 2 4 5 6 8 13 12 8 8 7 6 6 6 6 6 6 7 6 7 7 6 6 7 8 8 8 7 8 7 8 8
4 12 9 13 12 7 8 6 4 4 3 2 5 6 7 7 10 14 9 8 7 7 4 6 6 6 6 7 7 7 6 6 6 5 6 7 8 8 8 8 9 8 8
4 4 5 8 8 8 6 5 5 4 4 6 6 7 8 10 15 9 8 8 8 5 5 6 6 6 7 7 7 7 8 7 7 6 6 8 6 8 7 6 8 8 7
2 2 4 6 6 5 4 6 6 5 4 7 8 9 9 14 9 8 8 9 6 4 6 6 6 6 7 6 7 8 8 9 8 8 7 8 7 7 8 6 8 7 7
1 5 4 5 7 5 6 6 5 5 7 9 12 13 12 11 8 9 10 6 4 5 5 6 5 6 7 6 6 7 7 8 8 8 8 7 6 7 7 7 6 7 6
3 6 3 6 5 6 9 7 7 9 12 13 11 10 12 8 9 8 6 5 5 5 5 5 6 6 6 5 5 6 7 8 9 8 7 7 7 7 7 6 5 5 4
4 3 9 10 10 10 8 8 10 11 10 10 11 11 7 9 7 5 5 6 6 6 6 6 6 6 6 6 6 6 7 8 9 8 7 6 6 5 5 5 5 3 0
8 8 13 14 11 9 7 10 8 10 12 11 10 8 9 5 4 3 3 3 3 4 4 6 7 7 8 7 7 7 6 6 7 8 8 6 5 4 4 4 4 5 4
19 14 13 11 10 10 10 12 12 10 10 11 12 10 4 2 1 2 2 1 3 5 6 7 8 9 8 8 8 7 7 6 5 6 8 8 6 5 4 4 3 4 5
7 9 5 5 11 12 12 10 9 9 11 12 9 3 3 3 3 3 3 5 5 7 8 10 10 10 9 8 7 7 7 6 6 6 6 7 8 8 7 6 5 5 4
3 7 15 16 12 10 10 9 9 11 12 9 3 3 3 2 3 5 5 6 8 9 11 10 9 8 8 7 8 8 7 8 8 7 6 7 7 7 6 7 7 7 7
17 15 13 12 10 9 9 10 10 10 7 4 3 1 2 4 6 5 6 12 12 13 14 13 12 11 10 9 9 10 10 9 7 6 4 4 4 4 4 4 3 4 4
12 10 9 7 6 6 7 8 7 6 4 3 4 7 5 2 14 17 21 20 19 17 17 16 16 15 13 10 6 4 4 4 5 5 5 5 5 5 6 6 6 6 6
11 7 4 6 7 7 6 6 5 6 6 6 7 5 12 19 19 15 12 9 6 4 3 3 3 4 4 5 5 6 6 6 6 6 6 7 8 8 8 8 8 7 6
0 3 7 7 5 5 6 6 7 8 8 8 12 18 17 14 10 6 4 4 6 7 7 7 6 5 5 4 5 5 6 7 6 7 7 7 8 10 10 10 10 10 10
5 7 8 6 5 5 6 8 9 9 11 12 16 13 9 5 5 6 7 8 8 6 5 5 6 7 7 8 9 10 10 9 9 8 9 10 11 11 11 12 12 13 15
6 12 8 5 2 7 7 10 11 11 12 14 11 7 6 6 6 7 6 5 5 5 6 7 8 9 9 8 7 7 7 7 9 10 10 9 11 12 14 14 15 15 15
14 10 5 3 4 7 11 11 11 11 13 10 6 6 6 6 4 4 7 7 6 6 6 6 6 6 7 8 8 7 8 8 9 11 14 15 15 14 13 13 14 15 13
12 5 3 -3 13 11 12 11 11 12 8 7 6 4 3 8 7 5 5 7 7 7 8 8 7 7 7 9 10 12 14 15 16 14 14 13 13 14 15 15 15 16 17
8 4 -0 7 15 13 11 11 11 8 6 5 2 8 6 5 7 6 7 7 8 6 6 7 8 7 10 16 17 14 13 14 16 15 16 17 17 17 17 17 15 14 16
-1 -0 7 8 13 12 11 10 8 5 4 7 7 6 7 5 6 8 7 5 5 6 6 8 13 15 16 15 15 16 16 17 15 14 14 14 14 15 18 24 20 17 15
2 13 13 10 13 14 12 7 5 6 6 7 8 6 5 8 6 5 6 6 7 10 12 14 15 17 18 18 17 16 14 14 13 12 11 12 13 18 7 4 4 12 11
15 16 11 13 14 9 6 8 8 7 7 6 4 7 6 5 5 6 7 10 12 15 16 16 17 16 17 17 15 14 12 10 12 15 15 17 19 18 14 12 10 7 8
24 12 7 10 14 17 11 8 9 5 3 5 5 4 5 4 7 10 14 17 17 14 15 17 17 16 14 11 9 10 13 14 12 13 17 17 11 4 6 8 10 13 14
21 24 16 20 12 8 9 6 4 5 5 5 5 5 7 12 14 16 13 12 14 16 15 12 11 10 10 10 13 15 11 12 17 24 14 13 11 10 10 10 11 14 15
23 25 18 11 9 6 5 5 4 5 4 4 8 12 12 13 13 13 16 15 12 11 10 11 11 12 14 16 13 9 12 15 19 16 15 16 19 20 21 20 18 16 17
Height
3129 3131 3133 3134 3135 3136 3138 3139 3140 3141 3142 3143 3143 3142 3142 3141 3140 3139 3138 3137 3137 3136 3134 3133 3132 3131 3129 3128 3126 3125 3123 3121 3118 3116 3115 3113 3111 3109 3107 3105 3103 3102 3100
3124 3126 3127 3129 3131 3132 3133 3135 3136 3137 3138 3138 3138 3138 3137 3136 3136 3135 3134 3133 3133 3132 3132 3130 3129 3128 3127 3125 3123 3121 3120 3118 3117 3115 3113 3112 3111 3108 3105 3103 3101 3099 3098
3119 3122 3123 3125 3126 3128 3129 3130 3131 3132 3132 3132 3132 3132 3131 3131 3131 3130 3130 3130 3129 3129 3128 3127 3126 3125 3123 3122 3120 3119 3117 3116 3114 3112 3111 3109 3108 3107 3105 3102 3099 3097 3095
3114 3117 3118 3120 3122 3123 3124 3125 3126 3126 3126 3126 3126 3126 3126 3127 3126 3126 3126 3126 3126 3125 3124 3123 3122 3121 3120 3118 3117 3115 3114 3112 3111 3109 3107 3106 3105 3103 3102 3100 3098 3095 3093
3108 3111 3112 3114 3115 3117 3118 3119 3119 3120 3120 3119 3120 3120 3121 3122 3122 3122 3122 3122 3122 3121 3120 3119 3119 3117 3116 3115 3113 3111 3110 3108 3107 3105 3103 3102 3101 3099 3098 3096 3095 3092 3090
3101 3103 3106 3107 3109 3110 3111 3113 3113 3113 3113 3113 3114 3115 3117 3118 3118 3118 3118 3118 3118 3117 3116 3115 3114 3113 3112 3111 3109 3108 3106 3104 3102 3101 3099 3097 3096 3094 3093 3092 3091 3090 3087
3093 3095 3099 3101 3102 3103 3105 3106 3107 3107 3108 3109 3110 3111 3112 3113 3113 3114 3114 3114 3113 3112 3111 3110 3109 3108 3107 3106 3104 3102 3101 3100 3098 3096 3094 3093 3091 3090 3088 3087 3086 3085 3085
3086 3089 3092 3094 3096 3097 3098 3100 3100 3101 3103 3104 3105 3106 3108 3108 3109 3109 3109 3109 3108 3108 3106 3105 3104 3102 3101 3100 3099 3097 3096 3094 3093 3091 3089 3087 3086 3084 3082 3081 3079 3078 3077
3080 3083 3086 3088 3090 3091 3093 3094 3095 3097 3098 3099 3101 3102 3103 3103 3104 3104 3104 3103 3102 3101 3100 3099 3097 3096 3095 3093 3092 3091 3089 3089 3087 3085 3084 3082 3079 3078 3075 3073 3071 3069 3067
3074 3077 3079 3082 3083 3085 3087 3089 3091 3093 3094 3096 3097 3097 3098 3098 3098 3098 3097 3096 3095 3094 3093 3092 3090 3089 3088 3086 3086 3084 3083 3083 3081 3079 3078 3076 3073 3071 3068 3066 3064 3061 3057
3068 3071 3073 3075 3078 3080 3082 3084 3086 3088 3090 3091 3091 3092 3092 3092 3092 3091 3090 3088 3087 3085 3084 3083 3082 3081 3080 3079 3078 3077 3076 3075 3073 3071 3070 3069 3065 3064 3061 3058 3056 3053 3049
3062 3065 3068 3070 3073 3075 3078 3080 3082 3083 3084 3086 3086 3086 3086 3085 3084 3084 3082 3080 3079 3077 3076 3076 3075 3074 3073 3072 3071 3070 3068 3067 3065 3063 3061 3060 3056 3055 3053 3049 3046 3043 3040
3058 3060 3063 3066 3068 3071 3073 3075 3076 3078 3079 3079 3079 3079 3078 3077 3076 3075 3074 3072 3071 3070 3070 3069 3068 3067 3066 3064 3063 3061 3060 3057 3055 3054 3051 3049 3046 3043 3041 3038 3035 3033 3029
3054 3057 3059 3062 3064 3066 3068 3070 3071 3072 3072 3072 3072 3071 3070 3069 3068 3067 3067 3066 3066 3065 3064 3063 3061 3060 3058 3056 3054 3052 3050 3047 3045 3042 3039 3036 3033 3030 3028 3025 3022 3019 3015
3049 3052 3055 3057 3059 3061 3063 3064 3064 3064 3064 3064 3064 3063 3062 3062 3061 3061 3061 3060 3059 3058 3057 3055 3053 3051 3049 3047 3044 3042 3039 3036 3033 3030 3026 3023 3020 3017 3014 3010 3008 3005 3001
3044 3047 3049 3052 3054 3056 3056 3057 3057 3057 3057 3057 3057 3057 3056 3056 3056 3055 3054 3053 3052 3050 3049 3047 3045 3043 3040 3036 3033 3029 3027 3023 3019 3017 3015 3010 3007 3003 3000 2997 2993 2988 2984
3039 3041 3044 3046 3048 3049 3050 3050 3050 3050 3051 3051 3051 3051 3050 3050 3049 3048 3047 3045 3044 3042 3040 3038 3035 3032 3029 3025 3021 3017 3013 3009 3007 3003 2999 2995 2993 2989 2986 2983 2979 2976 2972
3033 3035 3038 3041 3042 3042 3042 3042 3043 3043 3044 3044 3045 3045 3044 3044 3043 3041 3039 3037 3035 3033 3030 3027 3024 3020 3016 3013 3009 3004 3000 2996 2992 2988 2984 2980 2977 2974 2970 2966 2964 2962 2959
3027 3030 3032 3034 3035 3035 3035 3036 3036 3037 3038 3038 3038 3038 3037 3036 3034 3032 3030 3028 3025 3022 3019 3015 3012 3007 3004 2999 2995 2990 2987 2983 2980 2976 2972 2967 2964 2961 2956 2952 2948 2946 2946
3021 3024 3026 3027 3027 3027 3028 3029 3030 3030 3031 3031 3031 3030 3029 3028 3026 3023 3021 3018 3015 3012 3008 3005 3000 2996 2992 2988 2983 2979 2974 2970 2966 2964 2960 2957 2952 2948 2945 2940 2936 2934 2934
3016 3017 3018 3018 3018 3019 3020 3021 3022 3023 3024 3023 3023 3022 3021 3019 3016 3014 3011 3008 3004 3000 2997 2994 2990 2985 2980 2976 2971 2966 2961 2957 2953 2951 2948 2945 2941 2938 2935 2931 2927 2924 2922
3008 3009 3009 3010 3011 3012 3013 3013 3014 3014 3015 3015 3015 3014 3012 3009 3006 3003 3000 2997 2993 2988 2984 2980 2977 2973 2968 2963 2959 2955 2951 2947 2942 2940 2936 2932 2928 2926 2924 2921 2918 2915 2912
3000 3000 3001 3002 3003 3003 3004 3006 3007 3007 3008 3008 3007 3005 3003 3000 2996 2993 2989 2985 2981 2976 2972 2968 2964 2960 2956 2952 2948 2945 2941 2937 2933 2929 2926 2922 2918 2916 2913 2912 2909 2906 2902
2991 2992 2993 2993 2995 2996 2998 2999 2999 3000 3001 3000 2998 2996 2993 2990 2987 2983 2978 2973 2968 2964 2960 2956 2952 2949 2945 2942 2939 2936 2932 2929 2925 2921 2917 2913 2910 2908 2905 2902 2900 2897 2893
2983 2984 2985 2987 2989 2990 2991 2992 2992 2993 2993 2992 2990 2987 2983 2979 2975 2970 2966 2961 2957 2953 2950 2948 2944 2940 2937 2934 2930 2926 2923 2920 2916 2911 2907 2904 2902 2899 2896 2893 2890 2888 2885
2974 2976 2979 2981 2983 2984 2986 2987 2987 2986 2985 2982 2978 2974 2971 2968 2964 2960 2958 2954 2950 2947 2944 2940 2935 2932 2929 2926 2923 2920 2916 2912 2908 2903 2900 2897 2894 2890 2887 2884 2881 2879 2876